sat.trackr.live / text

‹ back to catalog

STARLINK-36142

NORAD 66981 · 2025-288Y

PAYLOAD ACTIVE UNKNOWN

§ Identity

Operator
Country
US
Launch date
2025-12-08
Launch site
AFETR
Launch vehicle
Mass (kg)
RCS (m²)

Purposes: comms

External: N2YO · Heavens-Above · Gunter

§ Orbital elements

Epoch: 2026-05-25T04:14:33.957024Z

Period
94.27 min
Inclination
42.9988°
Eccentricity
0.0001455
Mean motion
15.27592890 rev/d
Perigee alt
482.0 km
Apogee alt
484.0 km
Semi-major
6,861.1 km
B*
7.1624e-4
RAAN
311.6252°
Arg perigee
281.8534°
Mean anomaly
78.2154°
Rev number
2,698

§ Raw data

STARLINK-361421 66981U 25288Y   26145.17678191  .00019507  00000+0  71624-3 0  99972 66981  42.9988 311.6252 0001455 281.8534  78.2154 15.27592890 26988

JSON: /api/v1/satellites/66981 · /tle

For live sub-satellite position, see the globe view (requires WebGL).

§ Visibility from observer

Set your observer location to see the next 7 days of passes ≥ 10°. The values pass through the URL so the page stays shareable.

No JS? Fill the form by hand. The geolocation button needs JavaScript.